Overview Statistics Trail Chart Weather Telemetry Raw packets
 

This is the latest recevied weather packets stored in our database for station/object KY0TEQ-13. If no packets are shown the sender has not sent any weather packets the latest 10 day(s).

<< 29 30 31 32 33 34 35 >>
Time Temp. Humidity Pressure Rain* Wind** Luminosity Snow
1788489858 17.78° C 42% 1306.5 hPa 0 mm - 0 W/m² -
1788489554 18.33° C 43% 1306.2 hPa 0 mm - 0 W/m² -
1788489250 18.33° C 40% 1306.2 hPa 0 mm - 0 W/m² -
1788488949 17.78° C 43% 1306.2 hPa 0 mm - 0 W/m² -
1788488646 20.56° C 39% 1306.2 hPa 0 mm - 0 W/m² -
1788488342 20° C 36% 1306.3 hPa 0 mm - 0 W/m² -
1788488037 20° C 37% 1306.2 hPa 0 mm - 0 W/m² -
1788487748 21.11° C 37% 1306 hPa 0 mm - 0 W/m² -
1788487428 21.67° C 34% 1306 hPa 0 mm - 0 W/m² -
1788487126 21.67° C 34% 1306.1 hPa 0 mm - 0 W/m² -
1788486822 21.67° C 33% 1306.1 hPa 0 mm - 0 W/m² -
1788486520 22.22° C 32% 1306.1 hPa 0 mm - 1 W/m² -
1788486215 22.22° C 32% 1306.1 hPa 0 mm - 2 W/m² -
1788485911 22.22° C 33% 1305.8 hPa 0 mm - 3 W/m² -
1788485606 22.22° C 33% 1305.8 hPa 0 mm - 5 W/m² -
1788485297 22.22° C 33% 1305.8 hPa 0 mm - 7 W/m² -
1788484997 22.78° C 32% 1306 hPa 0 mm - 9 W/m² -
1788484696 23.33° C 31% 1306 hPa 0 mm - 12 W/m² -
1788484391 23.33° C 32% 1305.7 hPa 0 mm - 15 W/m² -
1788484085 23.33° C 32% 1306 hPa 0 mm - 18 W/m² -
1788483782 23.89° C 31% 1306.1 hPa 0 mm - 21 W/m² -
1788483477 24.44° C 29% 1305.7 hPa 0 mm - 22 W/m² -
1788483173 25° C 29% 1305.7 hPa 0 mm - 29 W/m² -
1788482868 25° C 28% 1305.8 hPa 0 mm - 33 W/m² -
1788482564 25° C 27% 1306.1 hPa 0 mm - 34 W/m² -

* Rain latest hour (hover to see other rain measurements)
** Current wind speed in m/s (hover to see current wind gust speed)